Location: D�pe
(52.6057°N, 8.1808°E)
Time: 07:02:41
(UTC+00:00)

USA 307 - Pass Details

Date: 29 October 2020
Orbit: 569 x 579 km, 54.0° (Epoch: 30 November)

Event Time Altitude Azimuth Distance (km) Brightness Sun altitude
Rises 16:58:26 0° 288° (WNW) 2,793 7.6 -9.0°
Reaches altitude 10° 17:00:42 10° 286° (WNW) 1,891 6.7 -9.4°
Maximum altitude 17:04:59 72° 203° (SSW) 608 3.1 -10.0°
Drops below altitude 10° 17:09:15 10° 119° (ESE) 1,877 5.1 -10.6°
Enters shadow 17:09:29 - 119° (ESE) 1,966 5.2 -10.7°
